Find USA 60

NORAD ID: 20682 Int'l Des: 1990-050 Owner: NRO/NRL Country: US operational
LEO

Live-Position

3D-Globus wird geladen...

Über USA 60

Beschreibung wird geladen...

Nächste Überflüge

Passes for default location (London). Set your location on the main map for personalized predictions.

Höhenverlauf

Loading altitude history...

Zweizeiliger Elementsatz

1 20682U 90050B 26137.86033441 .00006130 00000-0 40235-3 0 9997
2 20682 63.2954 289.7509 0876613 82.3761 287.5838 13.65593658 99715
Epoch: 17. Mai 2026 • Age: 7 hours

Aktueller Status

Höhe 397.0 km
Geschwindigkeit 8.00 km/s
Subsatellitenpunkt 54.90°N, 38.98°E
Startdatum 8. Juni 1990
Alter 35.9 years
Typ military

Technische Details

Klassifizierung Payload
Masse 400.00 kg
Trockenmasse 400.00 kg
Gesamtmasse 400.00 kg
Länge 1.00 m
Durchmesser 1.00 m
Spannweite 10.00 m
Form Box + Ant
Hersteller NRL
Bus-Typ NOSS B SSU
Phasenstatus In Orbit
Besitzer/Staat NRO/NRL/US

Most Searched